Location: Aufkirchen
(47.9603°N, 11.3653°E)
Time: 10:29:11
(UTC+01:00)

Tiros 1 - Pass Details

Date: 04 December 2020
Orbit: 630 x 663 km, 48.4° (Epoch: 28 January)

Event Time Altitude Azimuth Distance (km) Brightness Sun altitude
Rises 18:20:44 0° 285° (WNW) 2,994 11.7 -19.0°
Reaches altitude 10° 18:23:07 10° 281° (W) 2,077 10.7 -19.4°
Maximum altitude 18:27:48 54° 205° (SSW) 799 7.7 -20.1°
Enters shadow 18:30:12 27° 139° (SE) 1,268 8.4 -20.5°
Drops below altitude 10° 18:32:25 10° 128° (SE) 2,053 - -20.9°
Sets 18:34:46 0° 124° (SE) 2,957 - -21.3°
